Location: Rometta
(44.2000°N, 10.0500°E)
Time: 12:09:03
(UTC+00:00)

COSMO-SKYMED 1 - Pass Details

Date: 20 January 2021
Orbit: 621 x 623 km, 97.9° (Epoch: 07 March)

Event Time Altitude Azimuth Distance (km) Brightness Sun altitude
Rises 17:55:35 0° 7° (N) 2,916 5.8 -18.1°
Reaches altitude 10° 17:57:50 10° 2° (N) 2,004 5.0 -18.5°
Maximum altitude 18:02:02 48° 288° (WNW) 820 3.5 -19.2°
Drops below altitude 10° 18:06:11 10° 215° (SW) 1,988 5.7 -19.9°
Sets 18:08:25 0° 209° (SSW) 2,889 6.5 -20.3°
